Watertown, SD

2:04 AM CDT on May 01, 2017 (GMT -0500)
Watertown Municipal

Weather History for KATY - January, 2013

Change the Weather History Date:

Sunday, January 6, 2013

  Actual Average Record
Temperature  
Mean Temperature 13 °F 13 °F  
Max Temperature 27 °F 22 °F 45 °F (2012)
Min Temperature -2 °F 3 °F -29 °F (1909)
Degree Days  
Heating Degree Days 52 52  
Month to date heating degree days 311 312  
Since 1 July heating degree days 3668 3771  
Cooling Degree Days 0 0  
Month to date cooling degree days 0 0  
Year to date cooling degree days 0 0  
Moisture  
Dew Point 9 °F    
Average Humidity 88    
Maximum Humidity 100    
Minimum Humidity 75    
Precipitation  
Precipitation 0.00 in 0.01 in 0.60 in (1967)
Month to date precipitation T 0.10  
Year to date precipitation T 0.10  
Snow  
Snow 0.00 in - - ()
Month to date snowfall T  
Since 1 July snowfall 10.7  
Snow Depth 7.00 in    
Sea Level Pressure  
Sea Level Pressure 30.13 in    
Wind  
Wind Speed 8 mph (SSW)    
Max Wind Speed 21 mph    
Max Gust Speed 25 mph    
Visibility 9 miles    
Events      
T = Trace of Precipitation, MM = Missing Value Source: NWS Daily Summary

Daily Weather History Graph

Daily Weather History Graph

Search for Another Location

Airport or City:

Trip Planner

Search our weather history database for the weather conditions in past years. The results will help you decide how hot, cold, wet, or windy it might be!

Date:

Astronomy

Jan. 06, 2013 Rise Set
Actual Time 8:06 AM CST 5:03 PM CST
Civil Twilight 7:32 AM CST 5:36 PM CST
Nautical Twilight 6:56 AM CST 6:13 PM CST
Astronomical Twilight 6:20 AM CST 6:48 PM CST
Moon 2:16 AM CST (1/6) 12:36 PM CST (1/6)
Length of Visible Light 10h 03m
Length of Day
8h 57m
Waning Crescent, 33% of the Moon is Illuminated
Jan 6
Waning Crescent
Jan 11
New
Jan 18
First Quarter
Jan 26
Full
Feb 3
Last Quarter

Hourly Weather History & Observations

Time (CST) Temp. Windchill Dew Point Humidity Pressure Visibility Wind Dir Wind Speed Gust Speed Precip Events Conditions
12:11 AM 14.0 °F -0.8 °F 12.2 °F 93% 30.10 in 4.0 mi NW 13.8 mph - N/A   Overcast
12:53 AM 12.9 °F 1.6 °F 12.0 °F 96% 30.20 in 5.0 mi WNW 8.1 mph - N/A   Overcast
1:44 AM 10.4 °F 4.0 °F 10.4 °F 100% 30.10 in 7.0 mi WNW 3.5 mph - N/A   Mostly Cloudy
1:53 AM 10.0 °F 3.6 °F 9.0 °F 95% 30.21 in 7.0 mi NW 3.5 mph - N/A   Mostly Cloudy
2:53 AM 6.1 °F - 5.0 °F 95% 30.22 in 7.0 mi Calm Calm - N/A   Scattered Clouds
3:53 AM 3.9 °F -3.4 °F 1.0 °F 88% 30.22 in 9.0 mi SW 3.5 mph - N/A   Clear
4:53 AM 3.9 °F -5.3 °F 1.9 °F 91% 30.23 in 9.0 mi WSW 4.6 mph - N/A   Clear
5:53 AM 3.0 °F - 1.0 °F 91% 30.24 in 9.0 mi Calm Calm - N/A   Clear
6:53 AM 1.9 °F - -0.0 °F 91% 30.25 in 10.0 mi Calm Calm - N/A   Clear
7:53 AM 1.9 °F - -0.0 °F 91% 30.26 in 9.0 mi Calm Calm - N/A   Clear
8:53 AM 1.9 °F - -0.0 °F 91% 30.28 in 9.0 mi Calm Calm - N/A   Clear
9:53 AM 6.1 °F - 5.0 °F 95% 30.27 in 9.0 mi Calm Calm - N/A   Clear
10:53 AM 8.1 °F 1.4 °F 7.0 °F 95% 30.27 in 10.0 mi South 3.5 mph - N/A   Clear
4:53 PM 15.1 °F 2.5 °F 12.0 °F 88% 30.14 in 9.0 mi SSE 10.4 mph - N/A   Clear
5:53 PM 16.0 °F 0.6 °F 12.0 °F 84% 30.07 in 10.0 mi SSE 16.1 mph - N/A   Clear
6:53 PM 16.0 °F 0.6 °F 12.0 °F 84% 30.03 in 10.0 mi SSE 16.1 mph - N/A   Clear
7:53 PM 17.1 °F 2.0 °F 12.9 °F 84% 29.98 in 10.0 mi South 16.1 mph - N/A   Clear
8:53 PM 19.0 °F 3.6 °F 14.0 °F 81% 29.94 in 10.0 mi SSE 18.4 mph - N/A   Clear
9:53 PM 21.9 °F 9.8 °F 17.1 °F 82% 29.91 in 10.0 mi South 12.7 mph - N/A   Clear
10:53 PM 26.1 °F 15.0 °F 19.0 °F 75% 29.88 in 10.0 mi South 12.7 mph 19.6 mph N/A   Clear
11:53 PM 27.0 °F 14.7 °F 19.9 °F 75% 29.88 in 10.0 mi SSW 16.1 mph - N/A   Clear